Regional Weather Roundup
Issued by NWS

Home | Current Version | Previous Version | Graphics & Text | Print | Product List | Glossary On
Versions: 1 2 3 4 5 6 7 8 9 10 11 12 13 14 15 16 17 18 19 20 21 22 23 24 25 26 27 28 29 30 31 32 33 34 35 36 37 38 39 40 41 42 43 44 45 46 47 48 49 50
000
ASUS43 KMPX 250710
RWRMN
WEATHER ROUNDUP FOR MINNESOTA
NATIONAL WEATHER SERVICE TWIN CITIES/CHANHASSEN MN
100 AM CST SUN JAN 25 2015


NOTE: "FAIR" INDICATES FEW OR NO CLOUDS BELOW 12,000 FEET WITH NO
SIGNIFICANT WEATHER AND/OR OBSTRUCTIONS TO VISIBILITY. N/A MEANS
CURRENT SKY AND/OR WEATHER CONDITIONS ARE NOT AVAILABLE.

MNZ060>063-068>070-250800-
   Twin Cities Metro

CITY           SKY/WX    TMP DP  RH WIND       PRES   REMARKS
TWIN CITIES    LGT SNOW  33  31  92 N9        29.71R FOG     WCI  25
ST PAUL        FLURRIES  34  32  92 NE7       29.73R WCI  28
CRYSTAL        LGT SNOW  33  29  85 NE10G20   29.72R FOG     WCI  25
BLAINE         CLOUDY    34  30  86 NE13G21   29.73R WCI  25
LAKEVILLE      MIX PCPN  32  30  93 NE13      29.69R WCI  22
EDEN PRAIRIE   LGT SNOW  34  31  88 NE9       29.69R FOG     WCI  27
SOUTH ST PAUL  LGT RAIN  34  32  92 N7        29.71R WCI  28
LAKE ELMO      MIX PCPN  34  32  93 NE16      29.72R WCI  23
$$
MNZ001>005-007-008-013>017-022>024-027-028-250800-
   Northwest Minnesota

CITY           SKY/WX    TMP DP  RH WIND       PRES   REMARKS
BEMIDJI        CLOUDY    18  10  72 NE8       29.83R WCI   8
HALLOCK        CLOUDY    19  10  68 E7        29.93R WCI  10
ROSEAU         CLOUDY    12   7  79 NE14      29.93R WCI  -3
WARROAD        CLOUDY    10   3  72 NE12      29.93R WCI  -4
THIEF RVR FALL MOCLDY    18  10  73 NE8       29.88R WCI   7
CROOKSTON      CLOUDY    19  12  73 NE8       29.90R WCI   9
FOSSTON        CLOUDY    16  10  79 NE5       29.85R WCI   9
DETROIT LAKES  CLOUDY    30  28  93 N3        29.80R
MOORHEAD       CLOUDY    28  27  93 N13       29.84R WCI  18
PARK RAPIDS    CLOUDY    27  19  72 NE8       29.78R WCI  19
MAHNOMEN       CLOUDY    21  16  79 N12       29.82R WCI   9
$$
MNZ006-009>011-018-025>026-250800-
   North Central Minnesota

CITY           SKY/WX    TMP DP  RH WIND       PRES   REMARKS
BAUDETTE       CLOUDY    11   2  67 E10       29.90R WCI  -3
FLAG ISLAND    MOCLDY     9   0  66 E6        29.94R WCI  -1
INTL FALLS     CLOUDY     6  -3  66 E12       29.93R WCI  -9
WASKISH        CLOUDY    12   7  79 NE10      29.88R WCI  -1
BIG FORK       CLOUDY    14   7  73 NE8       29.86R WCI   3
LONGVILLE      CLOUDY    25  18  74 N3        29.80R
GRAND RAPIDS   CLOUDY    23  16  74 NE6       29.81R WCI  16
CRANE LAKE     PTCLDY     3  -2  78 CALM      29.95R
ORR            CLOUDY     9   0  66 CALM      29.86R
COOK           CLOUDY    10   3  72 NE6       29.87R WCI   1
WALKER         CLOUDY    20  12  71 CALM      29.82R
$$
MNZ012-019>021-037-250800-
   Northeast Minnesota

CITY           SKY/WX    TMP DP  RH WIND       PRES   REMARKS
DULUTH         FLURRIES  20  12  71 E17       29.82R WCI   5
ELY            PTCLDY     3   0  85 NE3       29.89R
HIBBING        CLOUDY    21  13  71 E9        29.83R WCI  11
EVELETH        CLOUDY    19  12  73 NE3       29.85R
DULUTH HARBOR  CLOUDY    25  18  74 E23       29.89R WCI  10
TWO HARBORS    FLURRIES  21  16  79 E13G18    29.85R WCI   9
SILVER BAY     FLURRIES  18  10  73 NE10      29.87R WCI   6
GRAND MARAIS     N/A      8  -2  63 N8G17     29.97R WCI  -4
G MARAIS ARPRT PTCLDY    -2 -11  65 N7        29.87R WCI -16
$$
MNZ029>031-032-039>041-046>048-054>057-064-250800-
   West Central Minnesota

CITY           SKY/WX    TMP DP  RH WIND       PRES   REMARKS
FERGUS FALLS   CLOUDY    30  30 100 N8        29.81R WCI  23
WHEATON        MIX PCPN  30  30 100 N9        29.81R WCI  22
MORRIS         LGT SNOW  32  30  93 N9        29.75R WCI  24
ALEXANDRIA     CLOUDY    32  29  88 N7        29.75R WCI  26
ELBOW LAKE     CLOUDY    31  30  94 NE6       29.76R WCI  26
WADENA         CLOUDY    28  25  86 NE8       29.77R WCI  20
GLENWOOD       CLOUDY    32  30  93 N9        29.74R WCI  24
APPLETON       LGT SNOW  34  32  93 N10       29.74R WCI  26
BENSON         FLURRIES  34  32  93 NE7       29.74R WCI  28
ORTONVILLE     LGT RAIN  32  30  93 N13       29.76R WCI  22
MADISON        LGT SNOW  36  36 100 N12       29.74R
WILLMAR        MIX PCPN  34  32  93 NE12G17   29.73R WCI  25
$$
MNZ033>034-036-042>043-049>051-058-059-250800-
   Central Minnesota

CITY           SKY/WX    TMP DP  RH WIND       PRES   REMARKS
ST CLOUD       CLOUDY    31  26  82 NE8G20    29.74R WCI  23
SAUK CENTRE    CLOUDY    32  30  92 NE8       29.74R WCI  25
PAYNESVILLE    CLOUDY    30  30 100 N7        29.73R WCI  23
AITKIN         CLOUDY    27  19  74 E10G17    29.78R WCI  17
PINE RIVER     CLOUDY    28  21  74 N8        29.82R WCI  20
BRAINERD       CLOUDY    27  22  81 E10       29.78R WCI  17
STAPLES        CLOUDY    28  25  86 NE7       29.76R WCI  21
LONG PRAIRIE   CLOUDY    32  28  86 NE13      29.75R WCI  22
LITTLE FALLS   CLOUDY    30  25  80 NE6       29.76R WCI  24
LITCHFIELD     LGT SNOW  34  34 100 NE10      29.71R WCI  26
BUFFALO        LGT SNOW  32  29  92 N12G21    29.73R WCI  23
MAPLE LAKE     MIX PCPN  33  32  97 NE10      29.74R WCI  24
$$
MNZ037-044-045-052-053-250800-
   East Central Minnesota

CITY           SKY/WX    TMP DP  RH WIND       PRES   REMARKS
PRINCETON      CLOUDY    30  25  80 NE13G20   29.76R WCI  20
MORA           CLOUDY    27  21  80 E8        29.79R WCI  18
CAMBRIDGE      CLOUDY    30  19  64 NE10G18   29.75R WCI  21
RUSH CITY      CLOUDY    26  20  77 NE16G23   29.78R WCI  14
MOOSE LAKE     MOCLDY    23  18  80 E7        29.80R WCI  15
HINCKLEY       CLOUDY    28  21  74 NE13      29.79R WCI  18
CLOQUET        CLOUDY    21  16  79 E14G20    29.82R WCI   8
MCGREGOR       CLOUDY    25  19  80 E9        29.80R WCI  15
$$
MNZ071>073-080-081-089-090-097-098-250800-
   Southwest Minnesota

CITY           SKY/WX    TMP DP  RH WIND       PRES   REMARKS
MONTEVIDEO     LGT SNOW  32  32 100 NE12      29.73R WCI  23
GRANITE FALLS  LGT RAIN  32  32  99 N8        29.73R WCI  25
CANBY          LGT SNOW  33  32  98 N10       29.74R WCI  24
MARSHALL       CLOUDY    32  28  86 N14       29.71R WCI  22
REDWOOD FALLS  LGT SNOW  34  32  92 NE7       29.69R FOG     WCI  28
OLIVIA         LGT RAIN  32  32 100 NE10      29.69R WCI  24
PIPESTONE      LGT SNOW  32  30  93 N12G17    29.66R WCI  23
WINDOM         LGT SNOW  34  34 100 N12       29.63R WCI  25
WORTHINGTON    CLOUDY    32  28  86 N15       29.64R WCI  22
JACKSON        FLURRIES  34  32  93 VRB10     29.62R WCI  26
TRACY          LGT SNOW  33  33  98 N14       29.68R WCI  23
SLAYTON        LGT SNOW  32  31  97 N15       29.66R WCI  22
$$
MNZ065>067-074>077-082>085-091>093-250800-
   South Central Minnesota

CITY           SKY/WX    TMP DP  RH WIND       PRES   REMARKS
MANKATO        CLOUDY    36  30  80 NE10      29.64R
NEW ULM        FLURRIES  34  32  93 N6        29.67R WCI  29
ST JAMES       MIX PCPN  36  34  93 N10       29.65R
FAIRMONT       CLOUDY    34  28  80 N13       29.61R WCI  25
GLENCOE        LGT SNOW  34  33  98 NE6       29.68R WCI  29
FARIBAULT      LGT SNOW  34  32  93 NE13      29.65R WCI  25
OWATONNA       CLOUDY    34  30  86 NE9       29.63R WCI  26
WASECA         CLOUDY    34  32  93 NE12      29.64R WCI  25
ALBERT LEA     CLOUDY    36  34  93 NE9       29.59R
$$
MNZ078>079-086>088-094>096-250800-
   Southeast Minnesota

CITY           SKY/WX    TMP DP  RH WIND       PRES   REMARKS
ROCHESTER      CLOUDY    33  30  88 NE10      29.62R WCI  25
RED WING       LGT RAIN  36  30  80 E3        29.69R
STANTON        FLURRIES  35  32  88 NE10      29.66R WCI  27
DODGE CENTER   CLOUDY    34  32  93 NE9       29.62R WCI  26
WINONA         CLOUDY    34  32  93 CALM      29.67R
AUSTIN         CLOUDY    34  32  93 NE12      29.59S WCI  25
PRESTON        CLOUDY    33  31  90 NE7       29.61S WCI  27
$$
ABBREVIATIONS USED IN REMARKS
   TC - TEMPERATURES IN CELSIUS
  WCI - WIND CHILL INDEX
   HX - HEAT INDEX
  VSB - VISIBILITY
$$


USA.gov is the U.S. government's official web portal to all federal, state and local government web resources and services.